This is the latest recevied weather packets stored in our database for station/object WC4PEM-1. If no packets are shown the sender has not sent any weather packets the latest 10 day(s).
| Time | Temp. | Humidity | Pressure | Rain* | Wind** | Luminosity | Snow |
|---|---|---|---|---|---|---|---|
| 1777399123 | 29.44° C | 55% | 1018 hPa | 0 mm | - | 162 W/m² | - |
| 1777398823 | 30° C | 55% | 1018 hPa | 0 mm | - | 1088 W/m² | - |
| 1777398523 | 30° C | 55% | 1018.1 hPa | 0 mm | - | 1086 W/m² | - |
| 1777398223 | 30° C | 56% | 1018.1 hPa | 0 mm | - | 1025 W/m² | - |
| 1777397923 | 29.44° C | 57% | 1018.1 hPa | 0 mm | - | 1046 W/m² | - |
| 1777397623 | 29.44° C | 58% | 1018.2 hPa | 0 mm | - | 1078 W/m² | - |
| 1777397323 | 28.89° C | 59% | 1018.2 hPa | 0 mm | - | 1034 W/m² | - |
| 1777397023 | 28.33° C | 58% | 1017.9 hPa | 0 mm | - | 1000 W/m² | - |
| 1777396723 | 28.89° C | 59% | 1018 hPa | 0 mm | - | 1042 W/m² | - |
| 1777396423 | 28.89° C | 58% | 1018.1 hPa | 0 mm | - | 993 W/m² | - |
| 1777396123 | 28.89° C | 59% | 1018.1 hPa | 0 mm | - | 1004 W/m² | - |
| 1777395823 | 28.33° C | 60% | 1018.2 hPa | 0 mm | - | 1016 W/m² | - |
| 1777395523 | 28.33° C | 61% | 1018.2 hPa | 0 mm | - | 970 W/m² | - |
| 1777395223 | 27.78° C | 62% | 1018.4 hPa | 0 mm | - | 958 W/m² | - |
| 1777394923 | 27.78° C | 61% | 1018.5 hPa | 0 mm | - | 1032 W/m² | - |
| 1777394623 | 27.78° C | 61% | 1018.6 hPa | 0 mm | - | 947 W/m² | - |
| 1777394323 | 27.78° C | 60% | 1018.7 hPa | 0 mm | - | 954 W/m² | - |
| 1777394129 | 27.78° C | 61% | 1018.9 hPa | 0 mm | - | 933 W/m² | - |
| 1777394023 | 27.78° C | 61% | 1018.9 hPa | 0 mm | - | 933 W/m² | - |
| 1777393723 | 27.22° C | 62% | 1018.9 hPa | 0 mm | - | 930 W/m² | - |
| 1777393423 | 27.22° C | 61% | 1019 hPa | 0 mm | - | 923 W/m² | - |
| 1777393123 | 27.78° C | 60% | 1019.1 hPa | 0 mm | - | 918 W/m² | - |
| 1777393016 | 27.78° C | 60% | 1019.1 hPa | 0 mm | - | 907 W/m² | - |
| 1777392823 | 27.78° C | 60% | 1019.1 hPa | 0 mm | - | 907 W/m² | - |
| 1777392523 | 27.78° C | 60% | 1019.3 hPa | 0 mm | - | 905 W/m² | - |
* Rain latest hour (hover to see other rain measurements)
** Current wind speed in m/s (hover to see current wind gust speed)